Date,TemperatureHighF,TemperatureAvgF,TemperatureLowF,DewpointHighF,DewpointAvgF,DewpointLowF,HumidityHigh,HumidityAvg,HumidityLow,PressureMaxIn,PressureMinIn,WindSpeedMaxMPH,WindSpeedAvgMPH,GustSpeedMaxMPH,PrecipitationSumIn
2013-1-1,32,28,19,31,24,14,96,85,73,30.18,30.06,2,0,4,0.00
2013-1-2,25,18,10,17,13,8,92,83,65,30.29,30.15,1,0,4,0.00
2013-1-3,31,22,8,24,17,6,92,80,58,30.32,30.24,2,1,5,0.00
2013-1-4,33,28,23,24,21,18,84,77,67,30.34,30.27,4,1,5,0.00
2013-1-5,39,28,15,30,23,13,94,82,66,30.41,30.20,1,0,5,0.18
2013-1-6,38,33,27,33,29,23,93,85,77,30.32,30.02,4,1,4,0.13
2013-1-7,36,30,24,28,26,22,92,84,68,30.50,30.30,1,0,4,0.07
2013-1-8,45,31,20,35,27,18,95,85,67,30.38,30.27,1,0,2,0.16
2013-1-9,47,39,30,41,35,28,93,84,75,30.44,30.23,2,0,4,0.17
2013-1-10,42,35,25,32,30,24,96,82,69,30.58,30.22,2,1,3,0.01
2013-1-11,61,50,41,55,46,33,98,89,73,30.19,29.90,2,1,4,0.32
2013-1-12,63,56,47,61,54,46,99,95,83,30.03,29.84,2,0,4,0.00
2013-1-13,64,57,38,61,55,37,97,93,82,30.02,29.75,5,2,5,0.43
2013-1-14,37,28,25,36,25,22,95,85,81,30.46,30.05,3,1,5,0.00
2013-1-15,32,28,23,25,23,20,91,81,73,30.43,30.19,2,1,3,0.00
2013-1-16,35,32,30,29,28,26,90,84,73,30.07,29.98,2,0,3,0.00
2013-1-17,37,33,26,30,28,19,89,79,72,30.34,30.09,4,1,9,0.00
2013-1-18,36,27,16,26,19,13,89,73,57,30.54,30.25,2,1,9,0.00
2013-1-19,53,43,33,32,29,25,75,59,43,30.23,29.87,4,2,6,0.00
2013-1-20,44,31,23,36,20,14,73,63,55,30.21,29.84,5,2,10,0.00
2013-1-21,24,19,10,19,12,2,83,74,57,30.23,30.07,6,2,10,0.00
2013-1-22,12,8,6,3,0,-2,76,68,64,30.38,30.24,3,2,6,0.00
2013-1-23,21,15,8,14,6,1,87,68,48,30.39,30.14,1,0,4,0.00
2013-1-24,20,16,12,15,11,8,88,79,65,30.62,30.14,4,1,7,0.00
2013-1-25,23,19,16,20,14,8,90,79,63,30.54,30.08,2,1,7,0.00
2013-1-26,27,24,14,22,20,11,90,82,73,30.48,30.15,2,1,4,0.00
2013-1-27,34,22,11,24,16,8,91,81,66,30.54,30.37,2,1,3,0.09
2013-1-28,50,42,34,48,41,33,98,97,94,30.17,30.02,2,1,4,0.31
2013-1-29,64,57,48,58,54,48,99,89,79,30.02,29.66,2,1,4,0.02
2013-1-30,62,54,34,57,51,31,97,89,81,29.61,29.22,7,2,7,0.54
2013-1-31,34,26,20,30,20,15,90,80,69,29.95,29.43,6,4,15,0.00
2013-2-1,17,12,7,14,6,2,86,75,68,30.41,29.98,5,2,15,0.00
2013-2-2,27,20,10,24,17,5,92,86,79,30.39,30.03,2,0,4,0.00
2013-2-3,25,21,16,22,17,12,89,85,73,30.13,29.94,4,1,6,0.00
2013-2-4,29,22,15,27,20,12,94,88,71,30.14,29.89,2,0,6,0.01
2013-2-5,32,28,24,29,25,23,94,88,77,30.00,29.90,2,0,2,0.04
2013-2-6,33,31,28,29,25,20,90,79,60,30.29,30.01,2,1,5,0.04
2013-2-7,48,38,25,34,30,21,86,72,59,30.26,29.87,2,1,5,0.06
2013-2-8,43,34,27,38,30,21,95,84,76,30.32,29.78,6,3,9,0.16
2013-2-9,36,26,17,22,20,15,92,76,55,30.48,30.33,2,0,9,0.00
2013-2-10,49,38,24,42,27,19,84,66,48,30.32,29.85,3,1,5,0.00
2013-2-11,52,44,37,48,37,28,95,76,61,29.99,29.75,7,3,14,0.01
2013-2-12,46,36,29,32,28,25,84,71,55,30.13,29.94,5,2,14,0.00
2013-2-13,32,29,24,28,26,22,93,87,81,29.94,29.78,2,0,4,0.00
2013-2-14,45,36,25,39,31,24,94,84,76,29.99,29.86,2,1,4,0.00
2013-2-15,34,30,26,30,27,24,93,89,82,30.15,29.99,3,0,4,0.05
2013-2-16,29,22,15,23,18,11,92,82,67,30.15,30.02,4,1,7,0.00
2013-2-17,24,18,14,14,11,6,85,73,57,30.29,30.11,3,1,7,0.00
2013-2-18,50,34,13,36,23,10,86,65,52,30.30,29.80,3,1,5,0.00
2013-2-19,47,32,21,40,27,15,95,84,74,30.08,29.65,6,3,7,0.13
2013-2-20,22,20,16,17,14,11,87,78,69,30.33,30.08,4,2,7,0.00
2013-2-21,26,23,20,19,17,15,88,78,73,30.40,30.27,3,1,4,0.00
2013-2-22,40,32,25,38,29,19,97,89,76,30.23,29.96,4,1,6,0.10
2013-2-23,39,34,29,32,29,25,95,82,66,30.01,29.92,3,1,6,0.00
2013-2-24,34,30,27,25,24,22,86,77,65,30.19,29.95,2,1,6,0.00
2013-2-25,44,33,20,29,25,18,94,73,51,30.24,30.04,3,1,6,0.00
2013-2-26,42,37,32,41,33,25,97,86,68,30.02,29.48,5,3,6,0.74
2013-2-27,42,38,33,42,36,31,97,94,86,29.69,29.50,2,1,6,0.17
2013-2-28,36,34,31,34,32,30,95,91,86,29.93,29.66,4,2,5,0.05
2013-3-1,33,30,27,30,26,21,88,84,77,30.08,29.94,3,1,5,0.00
2013-3-2,28,27,26,23,22,21,87,84,80,30.10,30.05,3,2,5,0.00
2013-3-3,29,26,24,21,19,17,87,75,65,30.12,30.06,3,1,6,0.00
2013-3-4,39,28,16,23,19,13,93,70,46,30.23,30.10,2,0,4,0.00
2013-3-5,39,34,31,31,28,23,95,78,65,30.14,29.59,3,1,6,0.07
2013-3-6,37,33,31,32,31,28,96,90,83,30.24,29.59,3,1,6,0.36
2013-3-7,39,34,31,32,29,28,86,81,72,30.38,30.22,3,1,5,0.29
2013-3-8,43,35,27,32,28,24,88,76,62,30.49,30.38,2,1,5,0.03
2013-3-9,32,28,24,28,25,22,95,90,84,30.42,30.38,1,0,5,0.00
2013-3-10,69,58,45,44,39,33,82,51,36,30.07,29.84,3,1,4,0.01
2013-3-11,62,50,42,51,45,36,97,83,44,29.85,29.57,4,2,6,0.67
2013-3-12,40,36,32,35,31,30,93,83,75,30.02,29.81,3,1,6,0.01
2013-3-13,33,30,27,31,25,20,94,81,71,30.28,29.98,5,3,11,0.01
2013-3-14,40,31,22,26,21,18,82,68,53,30.35,30.19,3,1,11,0.00
2013-3-15,50,38,27,41,32,22,94,79,66,30.17,29.88,2,0,4,0.14
2013-3-16,49,41,32,46,39,30,97,94,88,30.02,29.62,3,1,5,0.13
2013-3-17,37,33,31,29,28,26,89,79,69,30.19,30.04,3,1,5,0.00
2013-3-18,49,40,32,49,38,26,98,93,78,30.10,29.62,5,2,6,0.86
2013-3-19,38,34,29,35,25,21,89,70,55,30.05,29.79,6,3,16,0.00
2013-3-20,34,30,23,22,19,14,71,62,55,30.05,29.95,5,2,16,0.00
2013-3-21,29,24,18,22,17,13,84,73,64,30.03,29.95,4,1,6,0.00
2013-3-22,42,30,21,24,20,17,85,68,47,30.08,30.02,3,1,6,0.00
2013-3-23,45,34,22,28,24,18,88,68,47,30.10,30.01,3,1,5,0.00
2013-3-24,37,34,30,29,26,24,85,72,60,30.00,29.49,4,2,7,0.00
2013-3-25,35,32,30,32,30,29,95,93,89,29.89,29.42,3,1,7,0.11
2013-3-26,41,35,32,32,30,27,95,83,59,30.18,29.91,5,2,9,0.26
2013-3-27,42,37,33,31,29,26,87,73,54,30.27,30.18,4,2,9,0.00
2013-3-28,47,39,30,31,28,23,82,66,52,30.32,30.26,4,2,9,0.00
2013-3-29,52,40,26,34,29,23,92,68,46,30.32,30.22,3,1,9,0.00
2013-3-30,57,42,26,35,30,24,94,65,39,30.26,29.99,2,0,6,0.00
2013-3-31,55,47,41,47,40,30,95,77,63,29.98,29.74,2,0,5,0.05
2013-4-1,48,40,36,42,30,20,84,69,48,30.03,29.75,5,2,5,0.00
2013-4-2,42,34,22,21,19,16,78,57,42,30.27,30.15,4,2,6,0.00
2013-4-3,44,35,24,22,18,16,69,51,35,30.44,30.28,4,1,8,0.00
2013-4-4,53,36,26,23,19,15,68,51,29,30.40,30.01,2,0,8,0.00
2013-4-5,54,42,28,36,27,22,79,57,42,30.17,29.98,4,1,6,0.00
2013-4-6,59,46,31,28,23,16,68,42,28,30.27,29.94,3,2,6,0.00
2013-4-7,72,62,54,49,42,28,64,48,36,29.97,29.84,5,2,7,0.00
2013-4-8,71,62,51,56,52,43,90,70,55,29.98,29.85,3,1,7,0.00
2013-4-9,81,67,53,62,56,51,94,70,47,30.04,29.88,4,1,6,0.00
2013-4-10,82,70,59,67,61,57,96,76,58,29.92,29.75,4,1,4,0.10
2013-4-11,64,58,49,62,57,48,98,96,89,29.84,29.55,2,1,4,1.02
2013-4-12,58,47,42,58,44,36,99,87,73,29.90,29.46,4,2,5,0.21
2013-4-13,50,43,37,40,36,32,84,76,66,30.05,29.90,4,1,5,0.00
2013-4-14,65,49,34,45,39,31,93,70,47,30.14,29.93,3,1,5,0.00
2013-4-15,70,61,48,56,50,41,79,67,55,30.00,29.91,3,1,6,0.00
2013-4-16,76,63,56,65,57,52,97,82,64,30.15,29.95,5,1,6,0.30
2013-4-17,66,59,52,60,56,51,98,91,82,30.23,30.00,3,1,5,0.15
2013-4-18,84,71,60,66,60,58,94,71,46,30.00,29.64,6,2,10,0.00
2013-4-19,73,52,40,60,44,32,95,75,57,29.91,29.41,5,3,10,0.48
2013-4-20,46,40,34,33,30,28,89,69,53,30.42,29.92,4,2,8,0.00
2013-4-21,52,41,28,32,28,24,86,60,41,30.59,30.43,3,1,8,0.00
2013-4-22,67,52,34,43,36,28,81,58,40,30.43,30.17,2,1,5,0.00
2013-4-23,72,59,42,52,44,33,78,58,41,30.17,29.89,3,1,5,0.00
2013-4-24,63,50,36,57,46,33,96,85,66,30.19,29.74,4,1,6,0.78
2013-4-25,55,44,31,40,35,28,97,74,49,30.38,30.20,4,1,7,0.01
2013-4-26,60,47,30,38,34,28,93,63,38,30.48,30.37,2,1,7,0.00
2013-4-27,70,56,37,49,40,34,90,60,35,30.38,30.10,3,1,3,0.00
2013-4-28,63,57,54,60,54,48,98,90,71,30.09,29.82,2,1,3,0.68
2013-4-29,65,59,55,59,56,53,99,91,74,29.97,29.86,1,0,4,0.28
2013-4-30,75,62,47,60,55,46,98,79,56,30.07,29.97,2,1,4,0.00
2013-5-1,79,67,52,62,57,50,95,72,49,30.20,30.06,3,1,3,0.01
2013-5-2,74,67,56,59,56,52,85,67,57,30.24,30.10,2,1,3,0.00
2013-5-3,76,68,58,56,50,41,90,57,30,30.12,30.00,3,1,10,0.00
2013-5-4,71,64,56,51,47,43,66,54,47,30.06,29.97,4,2,10,0.00
2013-5-5,72,64,53,46,44,36,76,51,33,30.02,29.91,3,1,5,0.00
2013-5-6,67,61,54,59,50,35,90,69,33,29.98,29.93,2,1,4,0.05
2013-5-7,68,61,56,60,57,54,96,86,71,29.97,29.92,3,1,3,0.05
2013-5-8,71,62,54,58,55,53,95,80,56,29.97,29.91,2,1,5,0.00
2013-5-9,80,66,52,61,55,51,97,71,41,29.99,29.92,1,0,5,0.01
2013-5-10,72,63,59,65,61,58,99,93,75,29.94,29.76,2,0,2,0.00
2013-5-11,61,53,46,61,50,41,100,91,80,29.94,29.79,1,0,3,0.30
2013-5-12,52,45,37,40,36,33,96,72,50,30.13,29.96,4,1,5,0.00
2013-5-13,56,46,34,36,34,31,93,67,43,30.19,30.11,2,0,5,0.00
2013-5-14,76,57,37,58,46,34,90,68,48,30.16,29.81,3,1,3,0.00
2013-5-15,86,76,65,64,61,58,83,63,45,29.81,29.73,3,1,7,0.00
2013-5-16,77,71,62,65,60,53,94,71,46,29.94,29.76,1,0,7,0.07
2013-5-17,80,68,57,67,61,56,99,82,48,30.07,29.94,1,0,3,0.00
2013-5-18,78,68,60,66,61,55,93,80,60,30.07,29.96,2,0,3,0.04
2013-5-19,82,71,60,69,65,58,97,81,64,30.00,29.89,1,0,3,0.00
2013-5-20,87,75,65,73,68,64,98,81,59,29.97,29.85,1,0,4,0.00
2013-5-21,87,77,68,69,66,64,93,71,48,29.88,29.75,2,0,5,0.00
2013-5-22,82,73,64,67,64,61,92,74,58,29.80,29.69,2,1,5,0.04
2013-5-23,72,62,48,64,58,46,97,87,61,30.02,29.74,3,1,5,0.36
2013-5-24,57,50,43,45,41,39,91,73,52,30.32,30.04,4,2,10,0.00
2013-5-25,63,51,36,47,42,35,97,72,49,30.39,30.25,2,1,10,0.00
2013-5-26,67,55,40,43,40,36,93,61,36,30.34,30.21,2,1,3,0.00
2013-5-27,68,58,49,54,48,39,92,72,56,30.25,29.99,2,0,3,0.09
2013-5-28,83,72,62,68,63,55,97,74,52,30.01,29.91,2,1,3,0.37
2013-5-29,87,78,69,66,63,58,75,61,38,30.02,29.94,2,1,3,0.00
2013-5-30,87,78,65,70,66,63,93,70,53,30.12,29.98,2,1,4,0.00
2013-5-31,82,73,67,71,66,63,97,81,63,30.03,29.91,4,1,5,0.22
2013-6-1,82,74,66,71,68,65,98,83,66,29.95,29.73,3,1,5,0.16
2013-6-2,75,70,65,68,63,60,97,80,63,29.88,29.74,2,0,4,0.00
2013-6-3,65,60,55,59,54,50,89,80,65,30.06,29.89,2,1,3,0.00
2013-6-4,66,52,43,48,45,41,94,80,53,30.17,30.07,2,0,4,0.00
2013-6-5,79,70,53,60,54,46,80,60,46,30.09,29.86,2,1,2,0.00
2013-6-6,69,63,58,64,60,56,98,93,69,29.88,29.76,2,0,3,0.31
2013-6-7,64,59,56,58,56,55,97,89,79,29.89,29.81,2,1,4,0.00
2013-6-8,74,64,53,59,56,52,98,79,54,30.05,29.89,1,0,4,0.00
2013-6-9,82,72,62,68,63,58,89,74,52,30.07,29.92,1,0,2,0.01
2013-6-10,77,70,66,69,66,63,98,88,68,29.90,29.73,1,0,2,0.75
2013-6-11,66,65,63,64,63,62,97,95,92,29.88,29.79,0,0,2,0.00
2013-6-12,88,80,67,76,72,64,95,77,68,29.88,29.68,1,0,3,0.00
2013-6-13,81,70,64,74,63,57,99,80,54,29.85,29.51,4,1,6,0.69
2013-6-14,75,67,59,60,59,57,93,75,59,30.04,29.86,3,1,6,0.00
2013-6-15,80,68,52,64,60,51,98,77,57,30.11,29.95,1,0,3,0.00
2013-6-16,78,72,68,69,66,63,94,82,74,29.95,29.89,2,0,3,0.03
2013-6-17,84,75,66,72,67,64,97,79,52,29.94,29.85,1,0,3,0.00
2013-6-18,79,72,64,69,66,58,94,81,63,29.97,29.82,3,1,6,0.00
2013-6-19,76,66,56,57,53,49,94,67,40,30.12,29.98,3,1,6,0.00
2013-6-20,82,70,52,61,56,50,95,65,43,30.20,30.13,1,0,4,0.00
2013-6-21,86,74,58,66,61,56,93,67,42,30.20,30.10,1,0,3,0.00
2013-6-22,89,76,65,73,68,62,98,78,57,30.12,30.01,2,0,3,0.63
2013-6-23,88,77,65,74,68,64,99,78,53,30.11,29.99,1,0,5,0.01
2013-6-24,85,76,64,72,68,62,96,76,63,30.10,29.96,1,0,5,0.00
2013-6-25,89,80,70,77,72,68,94,79,63,30.02,29.83,2,0,4,0.02
2013-6-26,85,74,67,76,70,66,99,87,66,29.90,29.75,2,0,4,0.63
2013-6-27,83,74,67,73,70,67,99,88,70,29.77,29.64,1,0,2,0.06
2013-6-28,80,73,66,71,67,62,96,82,65,29.64,29.51,2,0,2,0.71
2013-6-29,80,67,60,68,63,59,98,88,67,29.65,29.53,1,0,2,0.16
2013-6-30,77,68,62,69,64,61,99,89,72,29.83,29.66,2,1,4,0.01
2013-7-1,76,70,65,70,66,62,97,88,78,29.90,29.81,2,1,5,0.09
2013-7-2,69,68,67,67,66,66,96,95,93,29.95,29.90,0,0,5,0.00
2013-7-3,83,77,67,71,70,66,98,79,65,30.09,30.00,1,0,2,0.00
2013-7-4,75,72,70,71,70,69,96,92,87,30.13,30.07,1,0,2,0.12
2013-7-5,78,71,67,71,69,66,99,93,79,30.13,30.06,0,0,1,0.54
2013-7-6,82,73,70,74,71,68,99,94,75,30.12,29.99,1,0,3,1.50
2013-7-7,79,72,66,70,68,63,97,87,70,30.08,29.99,2,0,3,0.01
2013-7-8,79,71,64,76,70,63,99,95,88,30.10,30.01,1,0,2,0.72
2013-7-9,86,76,72,80,74,70,99,93,77,30.03,29.94,4,0,4,0.66
2013-7-10,88,75,67,80,72,66,100,92,76,29.96,29.82,3,0,4,0.11
2013-7-11,76,70,63,67,64,58,97,80,62,30.00,29.91,3,1,6,0.00
2013-7-12,78,69,58,64,61,57,96,77,57,30.07,30.00,3,1,6,0.00
2013-7-13,83,74,63,70,66,62,96,79,61,30.14,30.06,2,1,5,0.00
2013-7-14,87,79,68,76,72,66,96,79,66,30.20,30.13,1,0,3,0.00
2013-7-15,89,81,73,76,73,70,91,78,62,30.27,30.20,1,0,2,0.00
2013-7-16,91,82,71,77,74,70,98,80,61,30.30,30.21,2,0,3,0.00
2013-7-17,90,83,74,77,75,73,98,79,62,30.28,30.14,1,0,3,0.00
2013-7-18,91,83,75,78,75,72,91,77,61,30.16,29.98,1,0,3,0.00
2013-7-19,89,81,74,78,74,71,93,80,68,29.99,29.83,2,0,3,0.00
2013-7-20,78,75,70,74,72,69,97,91,86,29.89,29.79,2,0,3,0.59
2013-7-21,82,76,70,73,71,69,97,85,68,29.94,29.86,2,0,3,0.01
2013-7-22,76,72,69,72,70,68,98,93,86,29.90,29.74,1,0,3,1.26
2013-7-23,86,75,67,76,71,67,99,87,69,29.77,29.66,1,0,3,0.03
2013-7-24,72,68,61,67,60,56,91,77,64,29.98,29.77,3,2,5,0.00
2013-7-25,75,65,53,58,55,52,96,72,51,30.07,29.99,3,1,5,0.00
2013-7-26,80,68,55,63,60,54,97,75,53,30.08,29.95,1,0,4,0.00
2013-7-27,74,67,63,68,64,61,98,89,69,29.94,29.79,1,0,2,0.41
2013-7-28,70,63,54,60,56,53,97,78,61,30.02,29.86,2,0,4,0.00
2013-7-29,74,66,59,59,57,54,87,74,60,30.17,30.02,1,0,4,0.00
2013-7-30,78,68,57,63,60,56,97,78,58,30.22,30.11,2,0,2,0.00
2013-7-31,73,69,66,68,65,63,97,89,82,30.11,29.92,0,0,2,0.08
2013-8-1,79,72,67,67,66,64,99,84,62,29.93,29.87,2,0,3,0.10
2013-8-2,77,69,58,66,62,57,97,80,62,30.00,29.89,1,0,3,0.00
2013-8-3,79,71,65,69,65,61,99,83,62,29.98,29.93,2,0,4,0.24
2013-8-4,74,67,60,62,59,57,93,76,57,30.11,29.98,3,1,4,0.00
2013-8-5,75,66,53,62,58,52,97,78,60,30.12,29.98,1,0,3,0.00
2013-8-6,80,72,64,66,62,59,86,72,57,29.98,29.90,1,0,1,0.00
2013-8-7,84,76,68,75,70,64,93,84,72,29.92,29.84,1,0,3,0.00
2013-8-8,83,74,70,76,72,69,99,94,78,29.92,29.86,2,0,6,1.81
2013-8-9,77,70,64,71,67,64,100,91,66,30.00,29.87,1,0,6,0.40
2013-8-10,81,73,65,69,67,64,98,82,64,30.08,30.00,1,0,1,0.00
2013-8-11,81,73,63,73,67,63,98,84,67,30.07,30.00,2,0,3,0.00
2013-8-12,84,73,62,72,67,61,98,81,63,30.04,29.85,1,0,3,0.00
2013-8-13,73,68,59,68,62,52,96,81,62,30.00,29.79,2,1,2,0.00
2013-8-14,66,58,50,54,52,48,92,79,63,30.16,30.01,1,0,3,0.00
2013-8-15,72,61,49,56,53,48,98,78,55,30.18,30.09,1,0,3,0.00
2013-8-16,74,64,53,58,56,52,96,75,55,30.16,30.11,2,0,3,0.00
2013-8-17,79,68,57,63,59,55,93,75,54,30.19,30.13,2,0,3,0.00
2013-8-18,78,67,59,67,62,57,94,84,69,30.17,30.09,1,0,3,0.00
2013-8-19,80,70,62,67,63,61,98,80,52,30.12,30.05,1,0,2,0.00
2013-8-20,82,71,59,70,64,58,98,80,60,30.16,30.08,0,0,2,0.00
2013-8-21,84,72,61,72,66,60,98,83,67,30.15,30.04,1,0,1,0.00
2013-8-22,83,73,64,72,68,62,97,86,70,30.09,29.98,2,0,2,0.05
2013-8-23,81,73,67,68,66,60,97,80,60,30.13,30.00,3,1,5,0.01
2013-8-24,81,69,56,62,60,54,95,73,51,30.26,30.13,2,0,5,0.00
2013-8-25,84,72,58,66,61,56,96,72,49,30.33,30.19,1,0,2,0.00
2013-8-26,85,74,62,72,67,60,96,78,61,30.23,30.02,1,0,1,0.00
2013-8-27,84,77,69,76,72,68,95,86,76,30.02,29.90,1,0,1,0.00
2013-8-28,85,79,74,76,74,71,94,85,75,29.93,29.81,3,0,3,0.02
2013-8-29,83,75,70,72,70,69,98,87,67,30.02,29.93,2,0,3,0.00
2013-8-30,87,76,65,73,69,64,99,82,61,29.98,29.80,1,0,3,0.00
2013-8-31,85,76,68,76,71,67,98,87,71,29.81,29.75,2,0,3,0.40
2013-9-1,84,75,67,73,70,66,96,84,69,29.79,29.72,0,0,2,0.00
2013-9-2,80,74,69,74,69,61,98,85,71,29.84,29.74,0,0,0,0.00
2013-9-3,67,61,55,60,56,53,94,83,74,30.04,29.85,2,0,3,0.00
2013-9-4,80,65,51,62,57,50,98,79,53,30.13,30.05,1,0,3,0.00
2013-9-5,77,66,58,66,58,49,95,76,48,30.20,30.08,2,1,6,0.00
2013-9-6,75,62,48,54,50,46,97,69,37,30.25,30.11,2,0,6,0.00
2013-9-7,83,68,51,67,59,49,97,76,59,30.10,29.93,1,0,2,0.00
2013-9-8,79,73,68,70,67,64,91,82,75,29.99,29.91,3,1,6,0.00
2013-9-9,88,75,61,73,67,60,96,79,59,30.02,29.92,1,0,6,0.00
2013-9-10,93,82,73,78,74,70,91,76,57,30.06,29.98,1,0,6,0.00
2013-9-11,87,78,72,77,72,69,96,83,67,30.10,29.95,1,0,6,0.27
2013-9-12,77,71,63,72,68,62,98,91,73,29.95,29.81,3,0,3,0.61
2013-9-13,62,57,52,58,51,48,95,81,68,30.08,29.87,2,1,4,0.00
2013-9-14,65,54,43,50,47,42,95,78,53,30.18,30.08,2,0,4,0.00
2013-9-15,73,59,45,58,51,44,97,77,52,30.16,30.03,1,0,4,0.05
2013-9-16,68,61,56,58,56,51,98,83,63,30.29,30.09,2,1,3,0.07
2013-9-17,71,59,47,55,51,46,97,79,56,30.34,30.20,1,0,3,0.00
2013-9-18,76,64,54,64,58,51,93,83,67,30.19,30.04,0,0,2,0.00
2013-9-19,73,68,66,69,66,64,97,94,86,30.08,29.96,0,0,1,0.00
2013-9-20,85,73,66,71,68,66,99,87,60,29.98,29.76,1,0,2,0.59
2013-9-21,70,65,58,68,60,50,99,87,61,29.83,29.66,2,0,2,1.34
2013-9-22,62,55,50,50,48,46,93,76,58,30.03,29.84,2,0,6,0.00
2013-9-23,60,48,43,49,45,42,97,89,66,30.15,30.03,1,0,6,0.00
2013-9-24,67,55,41,52,48,40,97,79,58,30.13,29.95,1,0,2,0.00
2013-9-25,69,58,48,56,52,47,96,81,59,29.96,29.88,2,0,3,0.00
2013-9-26,76,62,51,57,52,49,97,73,38,30.08,29.93,2,1,3,0.00
2013-9-27,74,60,47,58,53,46,95,78,53,30.18,30.09,2,0,2,0.00
2013-9-28,76,63,49,59,54,48,97,77,53,30.19,30.07,1,0,2,0.00
2013-9-29,73,63,55,64,58,53,96,86,67,30.06,29.97,1,0,1,0.00
2013-9-30,72,65,62,63,61,59,95,86,74,30.01,29.93,1,0,1,0.00
2013-10-1,77,65,54,65,60,54,98,84,63,30.07,29.99,1,0,3,0.00
2013-10-2,79,68,59,69,64,58,98,89,71,30.09,30.01,1,0,3,0.00
2013-10-3,77,69,66,70,67,64,99,94,80,30.05,29.98,1,0,1,0.29
2013-10-4,80,69,62,70,67,62,99,93,72,30.06,30.00,2,0,2,0.58
2013-10-5,76,69,64,74,68,64,100,97,83,30.04,29.92,0,0,2,0.37
2013-10-6,75,67,52,68,65,51,100,94,78,29.91,29.66,1,0,1,1.04
2013-10-7,59,52,45,53,48,44,98,87,65,30.15,29.77,2,0,3,0.21
2013-10-8,65,52,40,50,46,39,98,82,55,30.30,30.16,1,0,3,0.00
2013-10-9,68,55,43,51,48,42,96,77,50,30.28,30.18,1,0,3,0.00
2013-10-10,72,56,42,56,48,41,96,78,51,30.20,30.07,2,0,3,0.00
2013-10-11,75,59,46,56,50,44,95,74,44,30.11,30.01,1,0,2,0.00
2013-10-12,72,61,52,62,57,50,97,85,72,30.11,30.05,1,0,2,0.00
2013-10-13,66,61,54,61,58,53,97,90,81,30.28,30.11,2,0,4,0.00
2013-10-14,68,56,46,53,50,45,96,82,59,30.34,30.21,3,0,4,0.00
2013-10-15,66,56,46,63,54,45,98,93,86,30.22,29.93,0,0,3,0.00
2013-10-16,66,62,52,63,59,48,98,91,79,29.94,29.84,1,0,2,0.10
2013-10-17,52,48,40,50,45,39,97,91,84,29.95,29.83,1,0,2,0.11
2013-10-18,62,51,42,51,45,41,97,81,56,30.02,29.93,1,0,2,0.00
2013-10-19,48,45,41,45,43,39,96,91,87,29.97,29.82,1,0,2,0.18
2013-10-20,61,48,38,46,41,36,94,78,55,30.02,29.97,1,0,2,0.00
2013-10-21,66,53,42,50,43,39,89,71,47,30.00,29.87,2,0,6,0.00
2013-10-22,50,43,33,45,34,30,92,73,50,30.02,29.89,1,0,6,0.05
2013-10-23,44,39,33,38,35,32,97,88,71,30.02,29.80,2,1,5,0.44
2013-10-24,44,38,32,35,32,30,95,83,59,30.23,30.01,1,0,5,0.00
2013-10-25,46,37,28,35,31,26,94,78,57,30.41,30.24,1,0,2,0.00
2013-10-26,46,41,33,39,32,28,81,71,57,30.28,29.93,2,0,2,0.00
2013-10-27,55,41,30,38,35,28,96,79,51,30.12,30.04,1,0,3,0.00
2013-10-28,58,43,30,40,35,29,97,77,47,30.31,30.11,1,0,3,0.00
2013-10-29,58,46,34,45,40,33,97,82,57,30.39,30.25,1,0,2,0.00
2013-10-30,64,55,47,58,51,43,96,85,79,30.23,30.04,1,0,3,0.00
2013-10-31,65,61,59,62,59,58,99,94,79,30.00,29.33,3,1,6,0.61
2013-11-1,62,55,49,62,50,46,99,85,67,29.67,29.30,3,1,6,0.16
2013-11-2,52,48,43,44,42,41,95,82,69,30.00,29.71,2,1,3,0.01
2013-11-3,50,44,39,41,38,34,96,83,63,30.41,30.04,1,0,3,0.00
2013-11-4,53,44,36,40,35,30,83,71,56,30.46,30.35,1,0,3,0.00
2013-11-5,59,52,46,46,43,40,81,71,62,30.43,30.25,0,0,2,0.00
2013-11-6,64,54,46,57,46,39,94,73,61,30.24,29.96,4,1,4,0.22
2013-11-7,47,42,37,46,36,30,95,78,58,30.19,29.99,3,1,7,0.11
2013-11-8,45,37,32,35,32,30,94,83,63,30.35,30.17,2,0,7,0.00
2013-11-9,60,47,32,41,36,31,93,67,49,30.27,29.99,2,1,3,0.00
2013-11-10,47,42,31,40,34,28,89,73,59,30.34,30.03,3,1,7,0.00
2013-11-11,50,40,29,39,33,27,94,78,52,30.31,30.07,4,1,7,0.04
2013-11-12,32,28,25,30,24,21,95,85,75,30.61,30.25,3,1,5,0.06
2013-11-13,38,28,20,24,22,18,92,76,56,30.63,30.42,1,0,4,0.02
2013-11-14,52,38,26,29,25,22,85,62,39,30.40,30.17,2,1,4,0.00
2013-11-15,51,44,35,40,30,25,80,59,47,30.19,30.11,1,0,4,0.00
2013-11-16,58,52,44,53,48,40,89,86,83,30.16,29.92,2,1,3,0.00
2013-11-17,60,58,52,59,55,44,98,92,72,29.92,29.46,4,2,4,1.00
2013-11-18,50,44,36,43,37,29,87,76,58,30.15,29.70,5,2,7,0.00
2013-11-19,40,35,30,29,28,26,85,73,62,30.40,30.16,3,1,7,0.00
2013-11-20,47,36,26,33,28,23,90,73,57,30.41,30.28,3,1,4,0.00
2013-11-21,54,46,38,45,39,31,94,76,62,30.36,30.21,1,0,4,0.14
2013-11-22,52,46,35,51,44,29,98,93,78,30.35,30.15,3,1,5,0.27
2013-11-23,35,29,21,29,24,12,93,80,63,30.52,30.30,4,2,6,0.00
2013-11-24,25,20,16,14,11,9,85,71,56,30.68,30.54,3,1,6,0.00
2013-11-25,36,27,17,29,18,13,92,71,55,30.55,30.24,4,1,5,0.00
2013-11-26,34,32,30,32,30,28,95,94,93,30.23,29.91,1,0,5,0.05
2013-11-27,31,27,24,29,21,15,93,78,58,30.23,29.89,4,2,9,0.00
2013-11-28,30,26,21,23,20,18,89,79,69,30.45,30.26,1,0,9,0.00
2013-11-29,35,28,18,23,21,16,90,75,60,30.66,30.46,2,0,2,0.01
2013-11-30,43,32,23,33,26,20,91,81,66,30.59,30.21,1,0,2,0.03
2013-12-1,46,33,26,38,30,25,95,90,73,30.20,29.99,0,0,2,0.00
2013-12-2,41,37,33,36,34,31,94,90,83,29.98,29.85,1,0,2,0.01
2013-12-3,52,43,34,47,40,33,97,92,81,29.90,29.84,1,0,4,0.03
2013-12-4,61,53,44,55,49,42,95,87,81,29.91,29.75,2,1,6,0.00
2013-12-5,61,50,32,58,46,30,95,87,76,30.12,29.75,3,1,6,0.06
2013-12-6,33,29,26,30,27,24,94,93,89,30.39,30.11,2,1,4,0.01
2013-12-7,26,24,21,25,19,16,100,81,69,30.62,30.39,2,1,4,0.00
2013-12-8,30,24,16,29,21,14,96,87,79,30.58,30.05,2,1,3,0.00
2013-12-9,33,30,25,32,27,20,97,89,81,30.23,30.00,2,1,4,0.00
2013-12-10,26,22,18,20,16,13,92,79,67,30.34,30.14,5,1,5,0.01
2013-12-11,31,19,10,24,15,8,90,83,71,30.51,30.31,3,1,5,0.03
2013-12-12,19,15,8,9,7,5,86,71,57,30.56,30.36,1,0,3,0.00
2013-12-13,32,24,14,25,17,8,81,73,62,30.36,30.24,1,0,2,0.03
2013-12-14,36,33,30,35,32,28,97,96,90,30.25,29.72,4,1,5,0.25
2013-12-15,31,24,22,30,21,15,97,86,75,30.13,29.80,4,2,6,0.00
2013-12-16,27,22,18,26,19,15,95,86,78,30.20,30.04,1,0,4,0.00
2013-12-17,31,28,25,30,25,22,96,89,82,30.14,30.00,4,1,4,0.00
2013-12-18,29,26,23,24,21,19,92,80,68,30.26,30.09,1,0,4,0.00
2013-12-19,46,39,28,38,31,21,86,73,64,30.10,29.99,1,0,3,0.31
2013-12-20,57,51,46,55,45,36,96,80,64,29.98,29.83,2,1,2,0.00
2013-12-21,63,58,50,62,57,49,99,97,93,29.82,29.45,4,1,7,1.21
2013-12-22,63,54,41,62,51,40,99,89,76,29.98,29.51,3,1,7,0.62
2013-12-23,40,33,27,38,27,20,94,80,73,30.37,29.99,3,2,6,0.00
2013-12-24,27,17,11,22,12,7,90,82,74,30.60,30.34,3,1,6,0.00
2013-12-25,31,23,10,26,17,8,91,78,63,30.57,30.23,1,0,4,0.00
2013-12-26,36,32,28,27,24,20,85,73,52,30.36,30.18,4,1,5,0.00
2013-12-27,46,37,31,34,29,24,82,73,63,30.41,30.30,1,0,5,0.00
2013-12-28,52,41,32,38,33,28,87,74,59,30.26,30.05,1,0,3,0.00
2013-12-29,41,39,33,41,35,30,97,87,66,30.03,29.77,3,0,4,0.29
2013-12-30,32,26,23,27,21,18,88,81,75,30.25,29.99,3,1,4,0.00
2013-12-31,26,23,21,20,18,16,87,79,69,30.36,30.16,4,1,5,0.00
2014-1-1,38,29,20,30,25,18,91,84,73,30.34,30.11,2,0,4,0.00
2014-1-2,28,22,10,25,19,7,93,89,85,30.19,29.83,4,2,9,0.00